Estación Meteorológica Peña el Pijo (Robertgarden) [ 07/12/20 00:59:58 CEST ]

Fecha Hora Presion(HPa) Temp (°C) Humedad % Rocio (°C) Viento ( m/s) Direccion Lluvia 1Hora(mm) Lluvia 24H(mm) LLuvia Total(mm)
2019-Dec-30 01:09:12 1017.900 - - - - N     39.88
2019-Dec-30 02:09:56 1017.800 - - - - N     39.88
2019-Dec-30 03:10:17 1017.800 - - - - N     39.88
2019-Dec-30 04:13:15 1017.500 - - - - N     39.88
2019-Dec-30 05:11:49 1017.500 - - - - N     39.88
2019-Dec-30 06:09:19 1017.400 - - - - N     39.88
2019-Dec-30 07:09:39 1017.600 - - - - N     39.88
2019-Dec-30 08:08:59 1018.200 - - - - N     39.88
2019-Dec-30 09:09:11 1018.900 - - - - N     39.88
2019-Dec-30 10:09:23 1019.200 - - - - N     39.88
2019-Dec-30 11:09:09 1019.300 - - - - N     39.88
2019-Dec-30 12:09:18 1018.800 - - - - N     39.88
2019-Dec-30 13:09:24 1018.300 - - - - N     39.88
2019-Dec-30 14:09:14 1017.500 - - - - N     39.88
2019-Dec-30 15:09:18 1017.500 - - - - N     39.88
2019-Dec-30 16:09:21 1017.600 - - - - N     39.88
2019-Dec-30 17:09:18 1017.900 - - - - N     39.88
2019-Dec-30 18:09:47 1018.300 - - - - N     39.88
2019-Dec-30 19:09:22 1018.700 - - - - N     39.88
2019-Dec-30 20:08:58 1019.000 - - - - N     39.88
2019-Dec-30 21:09:09 1019.000 - - - - N     39.88
2019-Dec-30 22:09:06 1019.100 - - - - N     39.88
2019-Dec-30 23:08:45 1019.000 - - - - N     39.88

Temperatura Máxima:    Temperatura Mínima:
Presión Máxima:1019.300 Hpa    Presión Mínima:1017.400 Hpa


Volver